Location: S�o Paulo
(23.5330°S, 46.6170°W)
Time: 14:19:31
(UTC-03:00)

ISS - Visible Passes

Search period start: 17 July 2018 00:00
Search period end: 27 July 2018 00:00
Orbit: 402 x 408 km, 51.6° (Epoch: 18 July)

Date Brightness Start Highest point End Pass type
(mag) Time Alt. Az. Time Alt. Az. Time Alt. Az.
18 Jul -0.6 18:32:03 10° W 18:34:15 17° NW 18:36:25 10° NNW visible
23 Jul -1.6 05:59:40 10° N 06:02:34 29° NE 06:05:30 10° ESE visible
24 Jul -0.5 05:09:04 10° NNE 05:10:33 13° NE 05:12:03 10° E visible
25 Jul -3.9 05:51:18 10° NW 05:54:35 73° SW 05:57:54 10° SE visible
26 Jul -2.6 05:02:17 40° NE 05:02:27 41° NE 05:05:37 10° SE visible
